Погода в Цареве

Болгария     42°10′13″N   27°51′04″E
темп.,
°C
ветер,
м/с
пор.,
м/с
влажн.,
%
обл.,
%
осадки,
мм/ч
давл.,
гПа
погр.,
м
14 июня, пн
пн1400:00+15сз5991100 0.1 1013537
03:00+12сз36905 0.1 1013199
06:00+11зсз34905 0.0 1013146
09:00+16ссз46665 0.0 1014813
12:00+19св455712 0.0 10141191
15:00+19всв3358100 0.3 10131182
18:00+19св2261100 0.2 1012635
21:00+15ююз117634 0.6 101347
15 июня, вт
вт1500:00+13зюз2289100 1.6 101444
03:00+13з338899 2.8 101388
06:00+12зсз3591100 0.4 1014138
09:00+16сз3577100 0.4 1014419
12:00+17сз4777100 0.9 1014780
15:00+17сз71070100 1.7 1013941
18:00+15зсз71284100 0.2 1012684
21:00+13з71295100 5.0 1011423
16 июня, ср
ср1600:00+14з61296100 8.4 1009507
03:00+15зсз71492100 18.6 1009504
06:00+15зсз5119129 0.1 1009379
09:00+16зсз51190100 0.5 1010624
12:00+19сз71278100 0.1 10101101
15:00+18сз7118490 0.5 1011847
18:00+20сз6108510 1.6 10111003
21:00+17зсз410915 1.9 1012371
17 июня, чт
чт1700:00+16з4994100 0.0 1013275
03:00+16зсз499188 0.0 1014268
06:00+15з349398 0.0 101597
09:00+17з2492100 0.3 1016165
12:00+21зсз4679100 0.6 1017789
15:00+23зсз456437 1.3 10161215
18:00+23зсз346713 0.2 1016897
21:00+18зюз23884 0.8 101638
18 июня, пт
пт1800:00+17зюз22904 0.0 101733
03:00+16зюз22904 0.0 101636
06:00+17з3494100 0.8 101694
09:00+18з3694100 2.3 1015213
12:00+19зсз4888100 0.3 1015481
15:00+18з41095100 5.3 1014554
18:00+18з4994100 3.2 1014472
21:00+17сз369554 4.0 1014213